Location: Newark
(25.1987°N, 100.3705°W)
Time: 17:23:48
(UTC+00:00)

Tiangong - Visible Passes

Search period start: 03 August 2021 00:00
Search period end: 13 August 2021 00:00
Orbit: 373 x 386 km, 41.5° (Epoch: 03 August)

Date Brightness Start Highest point End Pass type
(mag) Time Alt. Az. Time Alt. Az. Time Alt. Az.
03 Aug 1.7 11:14:45 18° SSW 11:16:50 48° SE 11:19:52 10° ENE visible
04 Aug 3.6 10:16:34 17° ESE 10:16:34 17° ESE 10:17:59 10° E visible
05 Aug 1.0 10:50:24 59° W 10:50:49 72° NW 10:53:58 10° NE visible
06 Aug 4.3 09:52:03 13° ENE 09:52:03 13° ENE 09:52:31 10° ENE visible
06 Aug 3.2 11:24:10 10° WNW 11:26:21 18° NNW 11:28:35 10° NNE visible
07 Aug 2.8 10:25:45 27° N 10:25:45 27° N 10:27:44 10° NE visible
08 Aug 3.7 10:59:25 10° NW 11:00:30 11° NNW 11:01:36 10° N visible
09 Aug 4.3 10:00:50 12° NNE 10:00:50 12° NNE 10:01:13 10° NNE visible
